カタログに戻る

SJ 16-02

運用中科学VLEO
NORAD 41634·PAYLOAD·🇨🇳 China

打ち上げ Jun 29, 2016 から Jiuquan Satellite Launch Center

Loading…

次のパス (今後24時間)

TLE

最新Source: Space-Track

元期: Sep 14, 2026, 23:07 UTC

1 41634U 16043A   26257.96351194  .00000590  00000-0  58475-4 0  9999
2 41634  75.0017 109.0076 0007648 180.0014 180.1177 14.93747892554544

AllMySatでSJ 16-02をリアルタイム追跡

Download on the App Store